ATLAS 5 CENTAUR DEB, 46847

Orbit data source: Space-Track

ATLAS 5 CENTAUR DEB, 46847 is space debris in HEO originally from a launch on Wed, 17 Oct 2018 UTC launched from the Air Force Eastern Test Range (AFETR). Debris objects in space refer to the collection of defunct objects orbiting the Earth. Examples of debris include non-operational satellites, rocket bodies, and fragments generated from explosions, collisions, or faulty payload assembly.

Loading next visibility...
Identifier
46847, 2018-079DC
Orbit
HEO
Country
Flag of USUS
Related business
Flag of USUnited Launch Alliance/Lockheed Martin (US)
Manufacturer
ULA Decatur
Mission
Spacecraft
Bus & Motor
Unknown
Mass
Unknown
Launch date (UTC)
2018-10-17 (8 years ago)
Launch vehicle
Unknown
Launch site
Air Force Eastern Test Range (AFETR)
Object type
Payload
Rocket body
Debris
Shape & HBR
Unknown shape, 1.1 m
Radar Cross Section
Large (>1 m²)

Expand to show TLE details & history
Last TLE update: 4 days ago

TLE from 4 days ago
0 ATLAS 5 CENTAUR DEB
1 46847U 18079DC  26169.10236365 -.00000109  00000-0  00000+0 0  9994
2 46847  13.5708  41.7422 4695960 295.6222  23.5613  1.77282805 36450
Epoch: 2026-06-18T02:27Z
TLE epoch observation values (Epoch: 2026-06-18T02:27:24.219Z)
Latitude
0.00008°
Longitude
98.51562°
Altitude
12,340.606 km
Speed
5.363 km/s
True Right ascension
02h 46m 52s
True Declination
0° 00' 00"
Sunlit
Object was in daylight at epoch
Visualization orbit readout
Latitude
Unknown
Longitude
Unknown
Altitude
Unknown
Speed
Unknown
Apparent Right ascension
Unknown
Apparent Declination
Unknown
Sunlit
N/A
Visualization observer readout
Local Sidereal Time
21:42:02
Azimuth
Unknown
Elevation
Unknown
Doppler factor
Unknown
Orbital elements
Apogee altitude
36,004.339 km
Perigee altitude
8,918.471 km
Semi-major axis
28,839.542 km
Eccentricity
0.4696
Inclination
13.5708°
RAAN
41.7422°
Arg. of periapsis
295.6222°
True anomaly
64.24222°
Mean anomaly
23.5613°
Eccentric anomaly
41.32969°
Mean motion
0.44316 °/min
Orbital period
812.35 mins
BSTAR
0
Loading maneuver chart data...
Computing Atmospheric mass density...

Documentation

Showing up to 5 results
|